TimeMST,TemperatureF,Dew PointF,Humidity,Sea Level PressureIn,VisibilityMPH,Wind Direction,Wind SpeedMPH,Gust SpeedMPH,PrecipitationIn,Events,Conditions,WindDirDegrees,DateUTC
12:53 AM,24.1,19.9,84,30.02,10.0,East,3.5,-,N/A,,Clear,90,2012-12-06 07:53:00
1:53 AM,24.1,21.0,88,30.02,10.0,East,5.8,-,N/A,,Clear,90,2012-12-06 08:53:00
2:53 AM,19.9,16.0,85,30.06,10.0,Calm,Calm,-,N/A,,Clear,0,2012-12-06 09:53:00
3:53 AM,19.9,16.0,85,30.04,10.0,Variable,3.5,-,N/A,,Partly Cloudy,0,2012-12-06 10:53:00
4:53 AM,18.0,14.0,84,30.08,10.0,West,3.5,-,N/A,,Clear,280,2012-12-06 11:53:00
5:53 AM,26.1,18.0,71,30.06,10.0,Calm,Calm,-,N/A,,Clear,0,2012-12-06 12:53:00
6:53 AM,21.0,16.0,81,30.09,10.0,Calm,Calm,-,N/A,,Clear,0,2012-12-06 13:53:00
7:53 AM,19.0,15.1,85,30.10,10.0,Calm,Calm,-,N/A,,Clear,0,2012-12-06 14:53:00
8:53 AM,23.0,18.0,81,30.09,10.0,Calm,Calm,-,N/A,,Clear,0,2012-12-06 15:53:00
9:53 AM,30.0,21.9,72,30.06,10.0,Calm,Calm,-,N/A,,Clear,0,2012-12-06 16:53:00
10:53 AM,35.1,21.9,59,30.01,10.0,Calm,Calm,-,N/A,,Clear,0,2012-12-06 17:53:00
11:53 AM,37.9,21.0,51,29.96,10.0,Variable,3.5,-,N/A,,Partly Cloudy,0,2012-12-06 18:53:00
12:53 PM,39.0,19.9,46,29.95,10.0,SSW,4.6,-,N/A,,Clear,200,2012-12-06 19:53:00
1:53 PM,42.1,18.0,38,29.92,10.0,West,9.2,-,N/A,,Scattered Clouds,270,2012-12-06 20:53:00
2:53 PM,41.0,19.0,41,29.92,10.0,West,5.8,16.1,N/A,,Partly Cloudy,270,2012-12-06 21:53:00
3:53 PM,37.0,19.9,50,29.93,10.0,West,10.4,-,N/A,,Overcast,260,2012-12-06 22:53:00
4:53 PM,33.1,19.9,59,29.96,10.0,Calm,Calm,-,N/A,,Scattered Clouds,0,2012-12-06 23:53:00
5:53 PM,27.0,19.0,72,29.93,10.0,WSW,10.4,-,N/A,,Clear,250,2012-12-07 00:53:00
6:53 PM,30.9,21.0,67,29.93,10.0,West,8.1,-,N/A,,Overcast,270,2012-12-07 01:53:00
7:53 PM,32.0,21.0,64,29.92,10.0,WSW,8.1,-,N/A,,Overcast,250,2012-12-07 02:53:00
8:53 PM,30.0,21.0,69,29.90,10.0,WSW,8.1,-,N/A,,Mostly Cloudy,250,2012-12-07 03:53:00
9:53 PM,27.0,23.0,85,29.89,10.0,NE,9.2,-,N/A,,Scattered Clouds,40,2012-12-07 04:53:00
10:53 PM,25.0,19.9,81,29.88,10.0,Variable,3.5,-,N/A,,Clear,0,2012-12-07 05:53:00
11:53 PM,28.9,19.0,67,29.84,10.0,NW,13.8,-,N/A,,Clear,310,2012-12-07 06:53:00